sat.trackr.live / text

‹ back to catalog

STARLINK-5477

NORAD 55659 · 2023-021AH

PAYLOAD ACTIVE UNKNOWN

§ Identity

Operator
Country
US
Launch date
2023-02-17
Launch site
AFWTR
Launch vehicle
Mass (kg)
RCS (m²)

Purposes: comms

External: N2YO · Heavens-Above · Gunter

§ Orbital elements

Epoch: 2026-09-20T22:00:03.000096Z

Period
95.49 min
Inclination
70.0013°
Eccentricity
0.0002722
Mean motion
15.07939693 rev/d
Perigee alt
540.6 km
Apogee alt
544.4 km
Semi-major
6,920.6 km
B*
8.0385e-4
RAAN
32.2418°
Arg perigee
263.3853°
Mean anomaly
226.1892°
Rev number
567

§ Raw data

STARLINK-54771 55659U 23021AH  26263.91670139  .00012292  00000+0  80385-3 0  99952 55659  70.0013  32.2418 0002722 263.3853 226.1892 15.07939693  5676

JSON: /api/v1/satellites/55659 · /tle

For live sub-satellite position, see the globe view (requires WebGL).

§ Visibility from observer

Set your observer location to see the next 7 days of passes ≥ 10°. The values pass through the URL so the page stays shareable.

No JS? Fill the form by hand. The geolocation button needs JavaScript.